Location: �clusier
(49.9361°N, 2.7869°E)
Time: 08:56:28
(UTC+00:00)

Cosmos 405 - Pass Details

Date: 16 June 2021
Orbit: 446 x 459 km, 81.3° (Epoch: 02 August)

Event Time Altitude Azimuth Distance (km) Brightness Sun altitude
Rises 22:29:00 0° 339° (NNW) 2,466 8.6 -14.5°
Reaches altitude 10° 22:31:15 10° 328° (NNW) 1,587 7.0 -14.6°
Maximum altitude 22:34:17 29° 267° (W) 856 4.4 -14.8°
Enters shadow 22:36:16 17° 216° (SW) 1,223 4.7 -14.9°
